Tracking 19832 objects as of 24-Aug-2019
HD Live streaming from Space Station
objects crossing your sky now

INSAT 4A

Track INSAT 4A now!
INSAT 4A is classified as:


NORAD ID: 28911
Int'l Code: 2005-049A
Perigee: 35,764.5 km
Apogee: 35,822.5 km
Inclination: 0.0 °
Period: 1,436.1 minutes
Semi major axis: 42164 km
RCS: 12.5892 m2 (large)
Launch date: December 21, 2005
Source: India (IND)
Launch site: FRENCH GUIANA (FRGUI)
aabbcc
Your satellite tracking list
Your tracking list is empty




NASA's NSSDC Master Catalog

Two Line Element Set (TLE):
1 28911U 05049A   19236.50952073 -.00000169  00000-0  00000+0 0  9997
2 28911   0.0393 111.8227 0006867 133.8514 353.2877  1.00272653 50132
Source of the keplerian elements: AFSPC